Torna al catalogo

DMSP 5D-2 F13 DEB

AttivoSSO
NORAD 40601·DEBRIS·🇺🇸 United States

Lanciato Mar 24, 1995 da Vandenberg Space Force Base

Loading…

Prossimi Passaggi (prossime 24 ore)

TLE

AggiornatoSource: Space-Track

Epoca: Sep 12, 2026, 14:25 UTC

1 40601U 95015EY  26255.60087128  .00003804  00000-0  10376-2 0  9997
2 40601  98.6461 307.2347 0006584 295.8854  64.1659 14.47938285592915

Traccia DMSP 5D-2 F13 DEB in tempo reale con AllMySat

Download on the App Store